Location: Sungai Buloh
(3.1000°N, 113.0000°E)
Time: 15:39:28
(UTC+00:00)

SL-12 R/B(2) - Pass Details

Date: 12 January 2026
Orbit: 1171 x 2178 km, 63.4° (Epoch: 11 February)

Event Time Altitude Azimuth Distance (km) Brightness Sun altitude
Rises 21:26:38 0° 210° (SSW) 4,078 6.7 -17.4°
Reaches altitude 10° 21:29:22 10° 212° (SSW) 3,087 6.0 -16.7°
Maximum altitude 21:36:27 66° 293° (WNW) 1,286 3.9 -15.1°
Drops below altitude 10° 21:44:03 10° 15° (NNE) 3,286 6.2 -13.3°
Sets 21:47:02 0° 18° (NNE) 4,358 6.9 -12.6°
